STARLINK-37255, 68554

Orbit data source: Space-Track

STARLINK-37255, 68554 is a payload satellite owned by SpaceX/Seattle (US) in LEO that was launched on Thu, 02 Apr 2026 UTC via an FALCON 9 launch vehicle from the Air Force Eastern Test Range (AFETR). Payload-class satellites include a variety of spacecraft equipped with specific instruments for various scientific and technological missions. These include communications satellites like Starlink; space stations such as the ISS; scientific satellites like the Hubble; Earth observation satellites from companies like Planet Labs, Umbra, and HawkEye 360; GPS; miniature CubeSats for education and research; and military/defense satellites.

Loading next visibility...
Identifier
68554, 2026-070N
Orbit
LEO
Country
Flag of USUS
Related business
Manufacturer
SpaceX/Seattle
Mission
Operational Commercial Communications
Bus & Motor
STARLINK V2MO, Unknown motor
Mass
575 kg wet, ~530 kg dry
Launch date (UTC)
2026-04-02 (5 months ago)
Launch vehicle
FALCON 9
Launch site
Air Force Eastern Test Range (AFETR)
Object type
Payload
Rocket body
Debris
Shape & HBR
Box + 1 Pan, 17.7 m
Radar Cross Section
41.120 m², Large (>1 m²)

Expand to show TLE details & history
Last TLE update: 10 hours ago

TLE from 10 hours ago
0 STARLINK-37255
1 68554U 26070N   26246.99071237  .00006399  00000-0  20039-3 0  9995
2 68554  53.1579 250.8322 0001261  78.2416 281.8728 15.34392915 23902
Epoch: 2026-09-03T23:46Z
TLE epoch observation values (Epoch: 2026-09-03T23:46:37.548Z)
Latitude
-0.00003°
Longitude
-88.94523°
Altitude
463.448 km
Speed
7.636 km/s
True Right ascension
16h 43m 19s
True Declination
0° 00' 00"
Sunlit
Object was in daylight at epoch
Visualization orbit readout
Latitude
Unknown
Longitude
Unknown
Altitude
Unknown
Speed
Unknown
Apparent Right ascension
Unknown
Apparent Declination
Unknown
Sunlit
N/A
Visualization observer readout
Local Sidereal Time
01:36:09
Azimuth
Unknown
Elevation
Unknown
Doppler factor
Unknown
Orbital elements
Apogee altitude
463.844 km
Perigee altitude
462.119 km
Semi-major axis
6,841.119 km
Eccentricity
0.00013
Inclination
53.1579°
RAAN
250.8322°
Arg. of periapsis
78.2416°
True anomaly
281.85866°
Mean anomaly
281.8728°
Eccentric anomaly
281.86573°
Mean motion
3.83577 °/min
Orbital period
93.85 mins
BSTAR
0.00020039
Loading maneuver chart data...
Computing Atmospheric mass density...
Loading historical data...
Loading historical data...
Loading historical data...
Loading historical data...
Loading historical data...
Loading historical data...
Loading historical data...

Documentation

Showing up to 5 results
|